Location: L�Adrech
(44.2500°N, 6.4167°E)
Time: 11:18:08
(UTC+00:00)

Cosmos 1869 - Pass Details

Date: 07 June 2020
Orbit: 519 x 563 km, 82.5° (Epoch: 10 July)

Event Time Altitude Azimuth Distance (km) Brightness Sun altitude
Rises 01:25:13 0° 353° (N) 2,660 7.8 -18.2°
Reaches altitude 10° 01:27:22 10° 355° (N) 1,764 6.8 -18.1°
Maximum altitude 01:31:14 72° 81° (E) 551 3.3 -17.7°
Enters shadow 01:33:05 29° 160° (SSE) 980 4.2 -17.6°
